EHI
0 0 1 3 3 1 0 0 0 0 0 1 2 3 4 6 9 15 18 20 23 23 22 21 20 18 15 15 14 14 11 6 3 3 2 1 0 0 1 1 1 0 0 0
0 0 1 2 2 1 0 0 0 0 0 0 1 2 3 5 9 15 19 21 23 25 24 24 22 20 18 19 19 18 14 8 3 2 2 1 0 0 0 0 0 1 1 1
0 0 0 1 1 1 0 0 0 0 0 0 0 1 2 4 8 15 19 22 25 28 31 30 28 25 24 24 24 23 17 10 5 4 3 2 1 0 0 0 0 2 3 3
0 0 0 0 0 0 0 0 0 0 0 0 0 0 1 4 8 14 19 24 29 34 36 35 32 31 29 29 27 24 20 13 9 6 5 4 3 1 0 0 0 1 3 3
0 0 0 0 0 0 0 0 0 1 0 0 0 0 1 3 7 13 19 24 30 37 39 35 33 32 31 31 29 26 22 17 11 8 6 5 4 3 1 0 0 0 1 2
0 0 0 0 0 0 0 0 0 0 0 0 0 0 0 2 5 12 17 21 27 35 37 34 30 30 30 31 29 26 23 20 14 9 7 5 4 4 3 1 0 0 1 2
0 0 0 0 0 0 0 0 0 0 0 0 0 0 0 1 3 9 16 21 25 30 33 31 28 28 30 30 28 25 23 22 18 13 9 6 5 6 5 2 0 1 1 2
0 0 0 0 0 0 0 0 0 0 0 0 0 0 0 1 3 8 15 22 25 27 29 29 27 27 29 28 27 25 24 23 21 17 12 9 9 9 8 4 2 2 3 3
0 0 0 0 0 0 0 0 0 0 0 0 0 0 0 1 4 9 15 23 27 28 27 27 28 28 29 29 29 28 26 24 23 20 16 13 14 13 11 6 4 3 3 3
0 0 0 0 0 0 0 0 0 0 0 0 0 0 0 1 4 8 15 23 27 27 25 25 27 29 30 30 31 32 30 27 25 23 19 17 17 16 13 10 7 5 4 4
0 0 0 0 0 0 0 0 0 0 0 0 0 0 0 0 2 6 13 19 22 23 23 23 25 28 29 28 30 32 31 28 25 23 20 19 18 16 15 12 9 7 6 6
0 0 0 0 0 0 0 0 0 0 0 0 0 0 0 1 2 6 11 15 18 20 22 21 22 25 25 23 24 27 28 27 25 22 19 19 18 16 15 12 9 7 7 7
0 0 0 0 0 0 0 0 0 0 0 0 0 0 1 1 4 8 12 16 18 21 23 21 21 24 23 20 22 24 25 25 25 22 19 17 16 14 13 11 8 7 7 7
0 0 0 0 0 0 0 0 0 0 0 0 0 1 1 1 4 8 13 17 20 23 25 23 21 22 22 21 22 24 25 24 24 23 20 17 15 12 12 11 9 8 7 6
0 0 0 0 0 0 0 0 0 0 0 1 1 1 0 1 5 10 14 18 21 25 27 25 21 19 19 21 22 23 23 23 23 23 21 18 15 13 13 13 12 10 8 7
0 0 0 0 0 0 0 0 0 0 1 2 2 1 1 3 7 12 15 18 20 25 27 25 21 18 17 20 20 20 21 22 22 21 19 17 14 13 13 13 13 12 11 9
0 0 0 0 0 0 0 0 0 0 1 1 1 1 2 5 9 13 17 19 20 23 25 24 20 16 16 18 19 18 19 21 21 18 16 15 14 12 12 12 13 15 14 13
0 0 0 0 0 0 0 0 0 0 0 1 1 2 4 7 9 12 17 20 20 20 21 21 18 16 15 17 18 17 18 18 18 16 14 14 14 13 11 10 13 15 14 12
0 0 0 0 0 0 0 0 0 1 1 2 3 4 6 9 10 12 14 17 18 18 17 17 18 18 17 17 18 17 16 15 14 13 13 14 15 15 13 11 12 13 12 10
0 0 0 0 0 0 0 0 1 2 2 3 3 4 7 10 10 10 10 12 14 15 15 17 19 20 19 19 18 17 14 12 11 11 12 14 15 15 14 13 13 12 11 10
0 0 0 0 0 0 0 0 1 2 2 3 3 4 6 6 7 8 9 10 11 12 14 17 19 18 19 20 19 16 13 11 10 11 12 12 13 13 13 13 13 12 11 10
0 0 0 0 0 0 0 0 0 1 2 3 3 3 3 3 5 8 9 9 9 10 13 16 17 16 17 19 19 17 14 11 11 11 11 10 9 10 11 12 12 11 11 11
0 0 0 0 0 0 1 1 1 2 3 3 3 2 3 3 5 9 10 9 8 8 10 13 15 15 15 17 18 18 15 14 14 13 12 10 8 7 8 8 9 10 11 12
0 0 0 1 1 1 3 5 5 4 4 3 3 3 4 6 7 9 9 8 6 6 8 10 12 13 14 15 16 17 17 16 16 15 13 11 8 6 5 5 5 7 9 10
0 0 1 2 2 3 5 7 8 7 6 5 4 5 6 7 8 8 7 6 5 6 7 9 10 11 12 13 14 15 17 17 16 16 14 11 7 5 3 3 3 4 6 7
0 0 1 2 3 4 5 7 8 8 7 6 7 7 6 7 8 7 5 4 4 5 7 8 9 10 11 12 12 14 16 17 16 16 14 9 6 4 3 3 3 2 3 4
Wind_Speed
2 2 4 7 8 7 5 3 3 4 2 3 4 5 8 9 8 8 8 8 8 8 7 8 8 8 8 6 6 6 5 4 3 2 2 2 1 1 1 1 2 2 1 1
3 5 10 7 5 4 4 3 3 2 1 3 5 4 5 6 9 10 11 10 9 7 6 8 8 8 8 8 7 6 5 5 4 3 2 2 2 1 2 1 1 1 1 1
6 8 5 4 4 5 4 5 5 4 1 3 5 2 1 2 4 6 7 7 8 10 10 9 8 7 7 7 7 7 5 5 4 3 2 1 1 1 0 1 1 1 1 1
5 7 4 3 4 6 6 6 5 4 3 1 3 2 3 3 2 4 5 6 7 8 8 8 8 8 8 7 6 6 5 5 4 4 3 3 3 2 2 2 1 1 1 2
5 3 2 4 6 4 6 6 4 3 3 2 1 3 5 1 1 3 5 7 8 8 9 9 10 9 8 7 6 6 5 4 3 4 4 4 3 2 1 1 1 1 1 2
6 4 3 4 4 2 2 3 4 4 5 2 3 3 4 3 6 6 6 7 9 9 9 8 8 7 6 6 6 5 5 5 4 4 4 4 4 3 2 1 1 1 1 1
6 6 4 1 2 5 3 5 4 5 4 3 2 2 5 5 6 9 9 9 9 9 9 8 8 8 8 8 7 6 6 5 5 4 4 4 4 3 3 3 3 2 1 2
2 6 5 2 4 4 2 8 7 4 4 3 2 3 5 3 2 3 6 8 8 8 8 9 10 10 10 9 8 7 6 5 5 5 5 4 4 3 2 3 2 3 2 2
3 6 5 3 2 4 1 2 7 7 2 1 2 3 5 2 2 2 3 6 7 8 8 7 7 8 8 8 8 8 7 5 5 5 4 4 4 3 3 2 2 2 2 2
5 3 6 4 3 2 4 4 5 5 4 1 2 3 4 4 2 1 3 5 6 6 6 6 6 6 6 6 6 5 5 5 4 5 5 4 4 3 3 2 2 2 2 2
2 3 5 3 1 3 1 2 4 4 5 6 3 5 5 6 5 5 4 5 6 7 6 6 5 5 5 5 5 5 5 4 4 5 4 4 3 3 3 3 3 2 2 1
1 4 2 6 5 2 3 3 5 4 2 4 4 6 4 5 4 5 4 4 5 6 6 5 5 5 4 4 4 4 4 4 4 5 4 4 3 3 3 3 3 2 2 1
2 5 2 7 8 6 3 2 3 5 4 3 4 6 2 3 2 3 5 5 4 5 5 5 4 4 4 4 4 4 4 4 4 4 4 4 3 3 3 3 2 2 2 1
4 5 6 6 6 3 2 2 1 5 4 3 4 4 2 3 4 3 4 5 5 5 5 5 4 3 4 3 3 3 3 3 3 4 4 4 4 4 4 3 2 2 2 2
6 3 1 3 3 1 1 1 0 2 4 6 5 5 6 6 7 6 5 5 6 5 5 5 4 4 3 3 3 3 3 3 3 3 4 4 4 3 3 2 2 2 2 2
4 3 1 2 2 3 3 3 0 2 3 3 4 2 4 3 4 4 5 6 6 5 5 5 4 4 4 4 3 3 2 2 3 3 3 2 2 2 2 2 2 2 2 2
2 3 2 2 3 4 3 3 1 2 3 4 3 4 2 2 4 5 5 6 6 5 5 5 4 4 4 4 3 3 3 2 2 2 2 2 3 2 2 2 2 2 2 2
4 3 3 1 3 2 7 2 2 5 4 3 3 3 3 4 3 3 4 5 4 4 3 3 4 3 3 3 2 2 2 2 3 2 1 2 2 2 1 1 1 2 1 2
6 6 3 3 2 3 4 3 1 3 2 2 4 3 4 4 5 3 1 2 4 4 4 3 3 3 3 3 2 3 3 2 2 2 2 1 2 2 2 1 2 2 1 1
4 5 5 3 3 4 5 4 1 5 1 2 4 5 4 4 2 3 2 1 3 2 3 3 3 3 3 2 3 3 3 3 3 2 2 2 2 2 3 3 2 1 1 1
4 3 2 3 3 4 4 3 4 3 5 2 2 4 3 2 4 4 2 0 2 2 2 3 4 3 2 2 3 3 2 3 3 2 1 1 1 3 3 2 2 1 1 1
2 2 1 3 2 6 3 3 2 5 3 2 2 3 3 3 3 2 1 1 2 2 3 4 4 2 1 2 3 2 2 2 1 2 1 1 1 2 1 1 1 1 1 0
2 5 5 5 6 6 2 3 3 4 4 2 2 2 4 4 4 3 1 1 1 2 2 3 4 3 1 1 3 3 2 2 2 2 1 1 1 1 1 2 1 1 1 1
3 0 2 1 3 2 1 2 2 3 3 3 4 4 4 3 3 2 1 1 1 1 2 2 3 2 1 1 1 2 2 2 3 2 1 0 0 1 1 1 1 1 2 2
4 0 1 1 3 1 1 1 3 3 3 3 3 4 4 4 3 2 2 2 2 2 2 2 3 3 2 2 1 2 2 3 3 2 1 0 0 1 1 1 1 2 3 4
3 4 4 6 6 4 4 3 3 4 4 4 3 2 2 3 4 3 2 2 2 2 2 1 1 2 2 2 2 2 2 3 3 2 1 1 1 0 1 1 1 2 1 2
Wind_Direction
277 111 221 220 208 200 180 184 240 254 212 118 149 164 174 174 170 168 168 170 170 174 168 157 155 154 150 152 153 157 154 165 154 140 142 147 172 177 173 193 193 174 176 179
360 254 233 216 214 188 186 206 244 257 192 130 143 159 181 178 185 179 176 182 177 171 163 163 161 159 162 166 168 165 169 171 170 168 167 169 163 172 183 207 210 184 191 212
220 246 235 209 211 202 227 201 219 204 37 79 114 44 215 188 179 178 183 176 169 172 169 168 167 167 166 170 172 169 173 173 173 165 142 123 78 49 41 277 273 242 207 225
247 246 231 238 232 199 239 225 206 188 136 218 154 161 267 207 175 178 181 174 169 171 168 167 166 168 171 176 171 164 168 167 169 161 158 161 166 189 217 217 224 245 221 223
258 254 217 245 249 214 219 217 196 173 129 91 29 126 277 212 199 215 195 177 174 171 171 176 176 175 171 165 165 166 165 168 170 169 169 166 181 197 208 203 220 251 261 241
260 262 220 228 260 227 188 53 31 52 75 59 259 147 261 226 213 210 201 186 180 173 171 175 174 164 163 164 165 166 168 181 179 175 175 171 175 174 171 203 220 254 264 265
310 300 283 262 332 328 70 82 33 2 21 256 260 140 244 236 216 202 193 187 179 170 166 166 165 165 168 171 174 174 174 185 186 183 186 183 183 178 187 200 206 218 246 258
240 285 274 254 196 221 227 140 157 191 207 253 311 219 252 229 222 195 179 169 161 162 168 170 174 174 176 178 178 178 183 190 186 184 190 188 184 184 192 197 202 211 222 233
192 253 277 272 236 163 188 201 171 143 147 120 283 286 304 332 52 76 138 144 155 159 163 169 173 173 176 178 181 183 185 188 188 187 185 185 186 186 191 195 200 218 233 237
176 240 281 293 8 327 168 159 85 102 136 173 265 252 246 263 246 153 139 144 156 157 154 156 157 159 170 174 175 175 177 187 191 186 187 186 190 190 190 185 203 218 231 234
130 170 291 338 212 226 31 56 104 110 143 153 205 257 226 215 198 170 167 162 163 161 160 154 149 155 162 166 170 173 177 180 186 189 191 191 192 195 193 201 215 219 222 219
147 135 249 263 259 199 151 169 140 144 220 158 161 253 251 182 177 161 161 154 159 153 151 148 147 145 147 152 165 176 179 180 190 187 183 188 188 187 197 212 225 219 213 213
97 100 45 337 340 1 37 46 116 128 123 146 164 250 265 152 153 160 149 143 137 130 125 135 140 149 161 163 165 173 178 181 186 178 175 181 185 184 193 204 214 208 203 218
99 100 149 197 232 258 308 345 55 113 140 182 196 206 240 178 173 166 147 138 132 133 132 136 145 163 173 173 172 175 183 185 178 175 173 184 194 195 195 195 194 192 194 196
85 110 175 218 239 129 54 331 24 118 172 169 192 191 214 198 181 168 153 139 127 125 131 141 156 175 179 171 171 177 186 191 182 175 179 193 199 193 184 187 193 201 207 211
64 119 70 338 352 41 15 338 354 104 108 127 131 199 249 212 150 142 146 143 143 153 157 154 164 168 171 172 176 176 184 186 166 164 178 177 171 178 183 196 198 201 214 225
55 103 92 274 309 32 336 295 126 113 121 136 168 208 178 131 142 156 158 151 158 169 167 162 167 173 176 179 174 176 183 170 153 153 169 164 161 165 176 196 201 211 217 225
137 109 133 159 47 222 240 263 94 99 83 88 121 150 148 161 177 157 140 150 158 163 163 164 154 158 169 163 156 161 153 154 157 157 155 164 167 170 172 163 211 229 224 227
145 138 123 124 171 263 296 329 26 106 37 61 108 111 109 100 69 32 357 154 167 175 165 159 155 148 141 148 151 131 139 141 146 162 178 183 180 180 185 200 227 228 233 251
69 104 123 137 155 222 249 291 342 91 33 345 104 107 107 94 93 261 265 209 156 151 143 135 124 105 108 136 131 123 141 148 173 194 203 199 187 185 192 204 218 227 219 254
16 34 119 162 194 246 268 314 56 109 229 244 136 140 137 165 195 220 234 210 152 130 132 124 119 122 136 126 116 123 145 184 199 193 186 197 214 202 193 200 211 211 208 262
164 136 167 138 180 247 295 55 136 208 195 154 146 136 128 130 128 113 98 132 129 110 110 114 109 107 130 137 129 138 189 211 175 153 154 218 257 231 193 186 219 215 190 217
179 183 182 182 211 236 234 157 185 160 149 169 155 123 122 127 130 123 125 149 141 132 134 133 133 137 154 143 145 165 203 171 143 131 160 241 309 306 229 197 212 228 215 206
288 120 128 201 260 258 237 127 128 151 162 164 148 132 122 139 149 149 161 169 165 158 147 143 142 146 159 169 164 189 191 160 144 151 190 204 24 338 325 261 215 208 212 209
245 269 120 234 251 343 341 183 151 124 121 119 130 130 139 146 150 165 185 191 182 163 165 158 160 174 187 195 210 217 187 161 159 170 179 205 216 277 305 293 254 226 223 205
237 193 186 224 221 185 228 222 158 135 142 143 120 91 125 150 158 164 185 195 180 170 160 159 166 174 188 194 219 234 197 167 162 175 194 196 198 229 252 274 326 329 276 254